Laconia, NH

5:48 AM EDT on May 21, 2018 (GMT -0400)
Laconia Municipal

Weather History for KLCI - August, 2014

Change the Weather History Date:

Tuesday, August 5, 2014

  Actual Average Record
Temperature  
Mean Temperature 70 °F -  
Max Temperature 80 °F 84 °F 97 °F (1987)
Min Temperature 60 °F 61 °F 51 °F (2013)
Cooling Degree Days 5    
Growing Degree Days 20 (Base 50)    
Moisture  
Dew Point 62 °F    
Average Humidity 76    
Maximum Humidity 94    
Minimum Humidity 51    
Precipitation  
Precipitation 0.15 in - - ()
Sea Level Pressure  
Sea Level Pressure 29.98 in    
Wind  
Wind Speed 3 mph (SW)    
Max Wind Speed 15 mph    
Max Gust Speed 24 mph    
Visibility 9 miles    
Events Thunderstorm    
Averages and records for this station are not official NWS values.
T = Trace of Precipitation, MM = Missing Value Source: NWS Daily Summary

Daily Weather History Graph

Daily Weather History Graph

Search for Another Location

Airport or City:

Astronomy

Aug. 05, 2014 Rise Set
Actual Time 5:39 AM EDT 8:03 PM EDT
Civil Twilight 5:07 AM EDT 8:35 PM EDT
Nautical Twilight 4:27 AM EDT 9:15 PM EDT
Astronomical Twilight 3:42 AM EDT 9:59 PM EDT
Moon 3:15 PM EDT (8/5) 12:25 AM EDT (8/5)
Length of Visible Light 15h 28m
Length of Day
14h 24m
Waxing Gibbous, 67% of the Moon is Illuminated
Aug 5
Waxing Gibbous
Aug 10
Full
Aug 17
Last Quarter
Aug 25
New
Sep 2
First Quarter

Hourly Weather History & Observations

Time (EDT) Temp. Heat Index Dew Point Humidity Pressure Visibility Wind Dir Wind Speed Gust Speed Precip Events Conditions
12:15 AM 64.4 °F - 60.8 °F 88% 30.03 in 10.0 mi Calm Calm - N/A   Unknown
12:35 AM 64.4 °F - 60.8 °F 88% 30.03 in 10.0 mi Calm Calm - N/A   Unknown
12:55 AM 64.4 °F - 60.8 °F 88% 30.03 in 10.0 mi SW 3.5 mph - N/A   Unknown
1:15 AM 64.4 °F - 60.8 °F 88% 30.02 in 10.0 mi Calm Calm - N/A   Unknown
1:35 AM 62.6 °F - 59.0 °F 88% 30.02 in 10.0 mi Calm Calm - N/A   Unknown
1:55 AM 64.4 °F - 60.8 °F 88% 30.02 in 10.0 mi Calm Calm - N/A   Unknown
2:15 AM 62.6 °F - 57.2 °F 82% 30.02 in 10.0 mi Calm Calm - N/A   Unknown
2:35 AM 62.6 °F - 60.8 °F 94% 30.02 in 8.0 mi Calm Calm - N/A   Unknown
2:55 AM 62.6 °F - 60.8 °F 94% 30.02 in 4.0 mi SW 4.6 mph - N/A   Unknown
3:15 AM 64.4 °F - 62.6 °F 94% 30.02 in 1.8 mi SW 4.6 mph - N/A   Unknown
3:35 AM 64.4 °F - 60.8 °F 88% 30.02 in 6.0 mi SW 3.5 mph - N/A   Unknown
3:55 AM 64.4 °F - 60.8 °F 88% 30.02 in 0.5 mi SW 6.9 mph - N/A   Unknown
4:15 AM 64.4 °F - 60.8 °F 88% 30.02 in 1.8 mi SW 3.5 mph - N/A   Unknown
4:35 AM 62.6 °F - 60.8 °F 94% 30.02 in 9.0 mi Calm Calm - N/A   Unknown
4:55 AM 62.6 °F - 57.2 °F 82% 30.02 in 9.0 mi SW 3.5 mph - N/A   Unknown
5:15 AM 62.6 °F - 59.0 °F 88% 30.02 in 10.0 mi Calm Calm - N/A   Unknown
5:35 AM 60.8 °F - 57.2 °F 88% 30.02 in 7.0 mi Calm Calm - N/A   Unknown
5:55 AM 60.8 °F - 57.2 °F 88% 30.02 in 8.0 mi SW 3.5 mph - N/A   Unknown
6:15 AM 62.6 °F - 57.2 °F 82% 30.02 in 8.0 mi Calm Calm - N/A   Unknown
6:35 AM 62.6 °F - 59.0 °F 88% 30.03 in 7.0 mi SW 3.5 mph - N/A   Unknown
6:55 AM 62.6 °F - 60.8 °F 94% 30.02 in 0.2 mi SW 5.8 mph - N/A   Unknown
7:15 AM 64.4 °F - 60.8 °F 88% 30.03 in 0.2 mi West 3.5 mph - N/A   Unknown
7:35 AM 64.4 °F - 62.6 °F 94% 30.03 in 0.5 mi SW 5.8 mph - N/A   Unknown
7:55 AM 64.4 °F - 62.6 °F 94% 30.03 in 1.8 mi WSW 4.6 mph - N/A   Unknown
8:15 AM 66.2 °F - 62.6 °F 88% 30.03 in 9.0 mi West 5.8 mph - N/A   Unknown
8:35 AM 68.0 °F - 62.6 °F 83% 30.04 in 10.0 mi WSW 6.9 mph - N/A   Unknown
8:55 AM 69.8 °F - 62.6 °F 78% 30.03 in 10.0 mi WSW 5.8 mph - N/A   Unknown
9:15 AM 71.6 °F - 62.6 °F 73% 30.02 in 10.0 mi WSW 5.8 mph - N/A   Unknown
9:35 AM 73.4 °F - 62.6 °F 69% 30.02 in 10.0 mi West 4.6 mph - N/A   Unknown
9:55 AM 73.4 °F - 62.6 °F 69% 30.02 in 10.0 mi WSW 5.8 mph - N/A   Unknown
10:15 AM 75.2 °F - 64.4 °F 69% 30.02 in 10.0 mi SW 5.8 mph - N/A   Unknown
10:35 AM 75.2 °F - 62.6 °F 65% 30.02 in 10.0 mi SW 4.6 mph - N/A   Unknown
10:55 AM 77.0 °F - 62.6 °F 61% 30.02 in 10.0 mi WSW 3.5 mph - N/A   Unknown
11:15 AM 75.2 °F - 60.8 °F 61% 30.01 in 10.0 mi SW 4.6 mph - N/A   Unknown
11:35 AM 78.8 °F - 62.6 °F 57% 30.01 in 10.0 mi West 3.5 mph - N/A   Unknown
11:55 AM 78.8 °F - 62.6 °F 57% 30.00 in 10.0 mi WSW 3.5 mph - N/A   Unknown
12:15 PM 80.6 °F 81.8 °F 62.6 °F 54% 29.99 in 10.0 mi Calm Calm - N/A   Unknown
12:35 PM 80.6 °F 81.8 °F 62.6 °F 54% 29.99 in 10.0 mi West 4.6 mph - N/A   Unknown
12:55 PM 80.6 °F 81.8 °F 62.6 °F 54% 29.98 in 10.0 mi West 8.1 mph - N/A   Unknown
1:15 PM 80.6 °F 81.5 °F 60.8 °F 51% 29.97 in 10.0 mi West 3.5 mph - N/A   Unknown
1:35 PM 80.6 °F 81.5 °F 60.8 °F 51% 29.97 in 10.0 mi SW 5.8 mph - N/A   Unknown
1:55 PM 80.6 °F 81.5 °F 60.8 °F 51% 29.97 in 10.0 mi SSW 11.5 mph - N/A   Unknown
2:15 PM 78.8 °F - 62.6 °F 57% 29.96 in 10.0 mi South 6.9 mph - N/A   Unknown
2:35 PM 77.0 °F - 62.6 °F 61% 29.95 in 10.0 mi SSE 4.6 mph - N/A   Unknown
2:55 PM 78.8 °F - 62.6 °F 57% 29.93 in 10.0 mi South 6.9 mph - N/A   Unknown
3:15 PM 80.6 °F 81.5 °F 60.8 °F 51% 29.93 in 10.0 mi SSE 6.9 mph - N/A   Unknown
3:35 PM 80.6 °F 81.5 °F 60.8 °F 51% 29.92 in 10.0 mi SW 8.1 mph - N/A   Unknown
3:55 PM 80.6 °F 81.5 °F 60.8 °F 51% 29.92 in 10.0 mi SSW 11.5 mph - N/A   Unknown
4:15 PM 80.6 °F 81.8 °F 62.6 °F 54% 29.92 in 10.0 mi SSW 13.8 mph - N/A   Unknown
4:35 PM 80.6 °F 81.8 °F 62.6 °F 54% 29.91 in 10.0 mi SSW 10.4 mph - N/A   Unknown
4:55 PM 80.6 °F 81.8 °F 62.6 °F 54% 29.92 in 10.0 mi SSW 6.9 mph - N/A   Unknown
5:15 PM 80.6 °F 81.8 °F 62.6 °F 54% 29.91 in 10.0 mi South 6.9 mph - N/A   Unknown
5:35 PM 78.8 °F - 64.4 °F 61% 29.91 in 8.0 mi South 6.9 mph - N/A   Unknown
5:55 PM 78.8 °F - 62.6 °F 57% 29.91 in 10.0 mi South 4.6 mph - N/A   Unknown
6:35 PM 77.0 °F - 64.4 °F 65% 29.91 in 10.0 mi NNW 6.9 mph - N/A Thunderstorm Unknown
6:55 PM 73.4 °F - 60.8 °F 65% 29.93 in 10.0 mi NW 15.0 mph 24.2 mph N/A Thunderstorm Thunderstorm
7:15 PM 68.0 °F - 62.6 °F 83% 29.93 in 10.0 mi Calm Calm - 0.07 in Thunderstorm Thunderstorm
7:35 PM 68.0 °F - 62.6 °F 83% 29.93 in 4.0 mi ESE 5.8 mph - 0.15 in Thunderstorm Thunderstorm
7:55 PM 66.2 °F - 62.6 °F 88% 29.93 in 9.0 mi SSW 3.5 mph - 0.15 in Thunderstorm Unknown
8:15 PM 66.2 °F - 62.6 °F 88% 29.94 in 9.0 mi NNW 4.6 mph - N/A Thunderstorm Thunderstorm
8:35 PM 66.2 °F - 62.6 °F 88% 29.93 in 10.0 mi Calm Calm - N/A Thunderstorm Unknown
8:55 PM 66.2 °F - 62.6 °F 88% 29.92 in 10.0 mi SSE 3.5 mph - N/A   Unknown
9:15 PM 66.2 °F - 62.6 °F 88% 29.92 in 10.0 mi WNW 3.5 mph - N/A   Unknown
9:35 PM 66.2 °F - 62.6 °F 88% 29.93 in 9.0 mi Calm Calm - N/A   Unknown
9:55 PM 66.2 °F - 62.6 °F 88% 29.93 in 9.0 mi Calm Calm - N/A   Unknown
10:15 PM 66.2 °F - 62.6 °F 88% 29.92 in 9.0 mi Calm Calm - N/A   Unknown
10:55 PM 66.2 °F - 62.6 °F 88% 29.91 in 10.0 mi Calm Calm - N/A   Unknown
11:15 PM 66.2 °F - 62.6 °F 88% 29.91 in 10.0 mi Calm Calm - N/A   Unknown
11:35 PM 66.2 °F - 62.6 °F 88% 29.90 in 10.0 mi Calm Calm - N/A   Unknown
11:55 PM 66.2 °F - 62.6 °F 88% 29.90 in 10.0 mi SSW 3.5 mph - N/A   Unknown